Regional Weather Roundup
Issued by NWS Little Rock, AR

Home | Current Version | Previous Version | Graphics & Text | Print | Product List | Glossary On
Versions: 1 2 3 4 5 6 7 8 9 10 11 12 13 14 15 16 17 18 19 20 21 22 23 24 25 26 27
000
ASUS44 KLZK 032305
RWRLZK

WEATHER ROUNDUP FOR ARKANSAS
NATIONAL WEATHER SERVICE LITTLE ROCK AR
600 PM CDT TUE MAY 03 2016

NOTE: "FAIR" INDICATES FEW OR NO CLOUDS BELOW 12,000 FEET WITH NO
SIGNIFICANT WEATHER AND/OR OBSTRUCTIONS TO VISIBILITY.

ARZ001-003-010-029-040000-
NORTHWEST ARKANSAS

CITY           SKY/WX    TMP DP  RH WIND       PRES   REMARKS
FAYETTEVILLE   MOSUNNY   64  43  46 NW9       30.02F
FORT SMITH     MOSUNNY   72  38  29 N9G17     30.00F
HARRISON       SUNNY     62  40  44 NW7       30.01F
BENTONVILLE    SUNNY     66  39  37 NW10      30.03F
ROGERS         PTSUNNY   65  41  41 NW13      30.02F
SILOAM SPGS    SUNNY     64  43  45 N8        30.04S
HIGHFILL       SUNNY     67  44  43 VRB5      30.02F
SPRINGDALE     MOSUNNY   66  41  39 NW12      30.04F
$$

ARZ004-005-016-040000-
NORTH CENTRAL ARKANSAS

CITY           SKY/WX    TMP DP  RH WIND       PRES   REMARKS
BATESVILLE     MOSUNNY   68  43  40 W6        29.98S
FLIPPIN        MOSUNNY  N/A N/A N/A W10       29.97S
MTN HOME       MOSUNNY   66  38  35 VRB6      29.98F
$$

ARZ040-041-040000-
WEST CENTRAL ARKANSAS

CITY           SKY/WX    TMP DP  RH WIND       PRES   REMARKS
MENA           SUNNY     70  43  37 N6        30.01F
MOUNT IDA      SUNNY     68  43  40 VRB6      29.98F
$$

ARZ009-017-025-026-028-040000-
NORTHEAST ARKANSAS

CITY           SKY/WX    TMP DP  RH WIND       PRES   REMARKS
CORNING          N/A     66  46  48 CALM      29.96S
JONESBORO      CLOUDY    67  47  48 W8        29.96F
NEWPORT        CLOUDY    66  46  48 N5        29.98F
WALNUT RIDGE   MOSUNNY   66  43  42 NW10      29.96F
BLYTHEVILLE    MOSUNNY   65  50  58 W7        29.96F
$$

ARZ022-023-033-042-044-040000-
CENTRAL ARKANSAS

CITY           SKY/WX    TMP DP  RH WIND       PRES   REMARKS
LITTLE ROCK    MOSUNNY   70  43  37 W13       29.99S
JACKSONVILLE   MOSUNNY   67  46  46 NW3       29.98S
SEARCY         MOSUNNY   66  45  45 NW6       29.99F
HOT SPRINGS    MOSUNNY   70  42  36 VRB5      30.00S
RUSSELLVILLE   MOSUNNY   70  41  34 NW3       29.98F
$$

ARZ036-040000-
EAST ARKANSAS

CITY           SKY/WX    TMP DP  RH WIND       PRES   REMARKS
WEST MEMPHIS   SUNNY     65  50  58 VRB5      29.97S
$$

ARZ050-053-066-070-073-040000-
SOUTHWEST ARKANSAS

CITY           SKY/WX    TMP DP  RH WIND       PRES   REMARKS
ARKADELPHIA    FAIR      71  51  49 NE8       30.00S
CAMDEN         LGT RAIN  70  45  40 N5        29.99F
TEXARKANA      MOSUNNY   71  47  42 VRB7      30.00F
EL DORADO      MOSUNNY   70  48  45 N9        30.00S
DE QUEEN       SUNNY     71  45  39 N7        29.98F
$$

ARZ056-057-069-040000-
SOUTHEAST ARKANSAS

CITY           SKY/WX    TMP DP  RH WIND       PRES   REMARKS
PINE BLUFF     SUNNY     67  47  48 N8        29.99F
STUTTGART      SUNNY     66  46  48 W3        29.99F
MONTICELLO     PTSUNNY   69  50  50 VRB5      29.99R

$$






USA.gov is the U.S. government's official web portal to all federal, state and local government web resources and services.